Time,TemperatureF,DewpointF,PressureIn,WindDirection,WindDirectionDegrees,WindSpeedMPH,WindSpeedGustMPH,Humidity,HourlyPrecipIn,Conditions,Clouds,dailyrainin,SoftwareType,DateUTC
2013-01-09 00:01:00,31.3,30.3,29.98,South,176,0.0,0.0,96,0.00,,,0.08,Wunderground v.1.15,2013-01-09 07:01:00,
2013-01-09 00:07:00,31.3,30.3,29.98,South,176,0.0,0.0,96,0.00,,,0.00,Wunderground v.1.15,2013-01-09 07:07:00,
2013-01-09 00:12:00,31.3,30.3,29.98,South,176,0.0,0.0,96,0.00,,,0.00,Wunderground v.1.15,2013-01-09 07:12:00,
2013-01-09 00:18:00,31.3,30.3,29.97,South,177,0.0,0.0,96,0.00,,,0.00,Wunderground v.1.15,2013-01-09 07:18:00,
2013-01-09 00:24:00,31.3,30.3,29.97,South,176,0.0,0.0,96,0.00,,,0.00,Wunderground v.1.15,2013-01-09 07:24:00,
2013-01-09 00:29:00,31.3,30.3,29.97,South,177,0.0,0.0,96,0.00,,,0.00,Wunderground v.1.15,2013-01-09 07:29:00,
2013-01-09 00:35:00,31.3,30.3,29.97,South,177,0.0,0.0,96,0.00,,,0.00,Wunderground v.1.15,2013-01-09 07:35:00,
2013-01-09 00:41:00,31.2,30.2,29.97,South,177,0.0,0.0,96,0.00,,,0.00,Wunderground v.1.15,2013-01-09 07:41:00,
2013-01-09 00:47:00,31.2,30.2,29.96,South,176,0.0,0.0,96,0.00,,,0.00,Wunderground v.1.15,2013-01-09 07:47:00,
2013-01-09 00:53:00,31.2,30.2,29.96,South,177,0.0,0.0,96,0.00,,,0.00,Wunderground v.1.15,2013-01-09 07:53:00,
2013-01-09 00:59:00,31.2,30.2,29.96,South,177,0.0,0.0,96,0.00,,,0.00,Wunderground v.1.15,2013-01-09 07:59:00,
2013-01-09 01:04:00,31.2,30.2,29.96,South,176,0.0,0.0,96,0.00,,,0.00,Wunderground v.1.15,2013-01-09 08:04:00,
2013-01-09 01:10:00,31.3,30.3,29.96,South,176,0.0,0.0,96,0.00,,,0.00,Wunderground v.1.15,2013-01-09 08:10:00,
2013-01-09 01:15:00,31.3,30.3,29.96,South,177,0.0,0.0,96,0.00,,,0.00,Wunderground v.1.15,2013-01-09 08:15:00,
2013-01-09 01:21:00,31.4,30.4,29.96,South,177,0.0,0.0,96,0.00,,,0.00,Wunderground v.1.15,2013-01-09 08:21:00,
2013-01-09 01:27:00,31.5,30.5,29.95,South,177,0.0,0.0,96,0.00,,,0.00,Wunderground v.1.15,2013-01-09 08:27:00,
2013-01-09 01:33:00,31.5,30.5,29.95,South,177,0.0,0.0,96,0.00,,,0.00,Wunderground v.1.15,2013-01-09 08:33:00,
2013-01-09 01:39:00,31.5,30.5,29.95,South,177,0.0,0.0,96,0.00,,,0.00,Wunderground v.1.15,2013-01-09 08:39:00,
2013-01-09 01:45:00,31.6,30.6,29.95,South,177,0.0,0.0,96,0.00,,,0.00,Wunderground v.1.15,2013-01-09 08:45:00,
2013-01-09 01:50:00,31.6,30.6,29.95,South,176,0.0,0.0,96,0.00,,,0.00,Wunderground v.1.15,2013-01-09 08:50:00,
2013-01-09 01:56:00,31.6,30.6,29.95,South,177,0.0,0.0,96,0.00,,,0.00,Wunderground v.1.15,2013-01-09 08:56:00,
2013-01-09 02:02:00,31.6,30.6,29.95,South,176,0.0,0.0,96,0.00,,,0.00,Wunderground v.1.15,2013-01-09 09:02:00,
2013-01-09 02:08:00,31.6,30.6,29.95,South,177,0.0,0.0,96,0.00,,,0.00,Wunderground v.1.15,2013-01-09 09:08:00,
2013-01-09 02:14:00,31.7,30.7,29.95,South,177,0.0,0.0,96,0.00,,,0.00,Wunderground v.1.15,2013-01-09 09:14:00,
2013-01-09 02:20:00,31.8,30.8,29.95,South,177,0.0,0.0,96,0.00,,,0.00,Wunderground v.1.15,2013-01-09 09:20:00,
2013-01-09 02:26:00,31.8,30.8,29.95,South,176,0.0,0.0,96,0.00,,,0.00,Wunderground v.1.15,2013-01-09 09:26:00,
2013-01-09 02:32:00,32.0,31.2,29.95,South,177,0.0,0.0,97,0.00,,,0.00,Wunderground v.1.15,2013-01-09 09:32:00,
2013-01-09 02:37:00,32.0,31.2,29.95,South,176,0.0,0.0,97,0.00,,,0.00,Wunderground v.1.15,2013-01-09 09:37:00,
2013-01-09 02:43:00,32.1,31.3,29.94,South,177,0.0,0.0,97,0.00,,,0.00,Wunderground v.1.15,2013-01-09 09:43:00,
2013-01-09 02:48:00,32.2,31.4,29.94,South,177,0.0,0.0,97,0.00,,,0.00,Wunderground v.1.15,2013-01-09 09:48:00,
2013-01-09 02:54:00,32.2,31.4,29.94,South,177,0.0,0.0,97,0.00,,,0.00,Wunderground v.1.15,2013-01-09 09:54:00,
2013-01-09 03:00:00,32.3,31.5,29.95,South,177,0.0,0.0,97,0.00,,,0.00,Wunderground v.1.15,2013-01-09 10:00:00,
2013-01-09 03:05:00,32.3,31.5,29.95,South,176,0.0,0.0,97,0.00,,,0.00,Wunderground v.1.15,2013-01-09 10:05:00,
2013-01-09 03:11:00,32.3,31.5,29.94,South,176,0.0,0.0,97,0.00,,,0.00,Wunderground v.1.15,2013-01-09 10:11:00,
2013-01-09 03:16:00,32.4,31.6,29.94,South,176,0.0,0.0,97,0.00,,,0.00,Wunderground v.1.15,2013-01-09 10:16:00,
2013-01-09 03:22:00,32.4,31.6,29.94,South,177,0.0,0.0,97,0.00,,,0.00,Wunderground v.1.15,2013-01-09 10:22:00,
2013-01-09 03:28:00,32.4,31.6,29.94,South,184,0.0,0.0,97,0.00,,,0.00,Wunderground v.1.15,2013-01-09 10:28:00,
2013-01-09 03:34:00,32.5,31.7,29.94,SSW,200,0.0,0.0,97,0.00,,,0.00,Wunderground v.1.15,2013-01-09 10:34:00,
2013-01-09 03:39:00,32.5,31.7,29.94,SSW,200,0.0,0.0,97,0.00,,,0.00,Wunderground v.1.15,2013-01-09 10:39:00,
2013-01-09 03:45:00,32.4,31.6,29.93,SSW,200,0.0,0.0,97,0.00,,,0.00,Wunderground v.1.15,2013-01-09 10:45:00,
2013-01-09 03:51:00,32.4,31.6,29.93,SSW,200,0.0,0.0,97,0.00,,,0.00,Wunderground v.1.15,2013-01-09 10:51:00,
2013-01-09 03:56:00,32.3,31.5,29.93,SSW,200,0.0,0.0,97,0.00,,,0.00,Wunderground v.1.15,2013-01-09 10:56:00,
2013-01-09 04:02:00,32.2,31.4,29.93,SSW,200,0.0,0.0,97,0.00,,,0.00,Wunderground v.1.15,2013-01-09 11:02:00,
2013-01-09 04:08:00,32.1,31.3,29.93,SSW,200,0.0,0.0,97,0.00,,,0.00,Wunderground v.1.15,2013-01-09 11:08:00,
2013-01-09 04:14:00,31.9,31.1,29.93,SSW,200,0.0,0.0,97,0.00,,,0.00,Wunderground v.1.15,2013-01-09 11:14:00,
2013-01-09 04:20:00,31.9,31.1,29.93,SSW,200,0.0,0.0,97,0.00,,,0.00,Wunderground v.1.15,2013-01-09 11:20:00,
2013-01-09 04:26:00,31.9,30.9,29.93,SSW,200,0.0,0.0,96,0.00,,,0.00,Wunderground v.1.15,2013-01-09 11:26:00,
2013-01-09 04:31:00,31.9,31.1,29.93,SSW,200,0.0,0.0,97,0.00,,,0.00,Wunderground v.1.15,2013-01-09 11:31:00,
2013-01-09 04:37:00,31.8,30.8,29.94,SSW,200,0.0,0.0,96,0.00,,,0.00,Wunderground v.1.15,2013-01-09 11:37:00,
2013-01-09 04:43:00,31.6,30.6,29.94,SSW,200,0.0,0.0,96,0.00,,,0.00,Wunderground v.1.15,2013-01-09 11:43:00,
2013-01-09 04:49:00,31.5,30.5,29.94,West,262,0.0,0.0,96,0.00,,,0.00,Wunderground v.1.15,2013-01-09 11:49:00,
2013-01-09 04:55:00,31.6,30.8,29.94,West,262,0.0,0.0,97,0.00,,,0.00,Wunderground v.1.15,2013-01-09 11:55:00,
2013-01-09 05:01:00,31.7,30.9,29.93,West,262,0.0,0.0,97,0.00,,,0.00,Wunderground v.1.15,2013-01-09 12:01:00,
2013-01-09 05:07:00,31.7,30.9,29.93,West,262,0.0,0.0,97,0.00,,,0.00,Wunderground v.1.15,2013-01-09 12:07:00,
2013-01-09 05:12:00,31.8,31.0,29.93,West,262,0.0,0.0,97,0.00,,,0.00,Wunderground v.1.15,2013-01-09 12:12:00,
2013-01-09 05:17:00,32.0,31.2,29.93,West,262,0.0,0.0,97,0.00,,,0.00,Wunderground v.1.15,2013-01-09 12:17:00,
2013-01-09 05:23:00,31.9,31.1,29.93,West,262,0.0,0.0,97,0.00,,,0.00,Wunderground v.1.15,2013-01-09 12:23:00,
2013-01-09 05:29:00,32.1,31.3,29.93,West,262,0.0,0.0,97,0.00,,,0.00,Wunderground v.1.15,2013-01-09 12:29:00,
2013-01-09 05:35:00,32.3,31.5,29.93,West,262,0.0,0.0,97,0.00,,,0.00,Wunderground v.1.15,2013-01-09 12:35:00,
2013-01-09 05:41:00,32.5,31.7,29.92,West,262,0.0,0.0,97,0.00,,,0.00,Wunderground v.1.15,2013-01-09 12:41:00,
2013-01-09 05:47:00,32.5,31.7,29.91,West,262,0.0,0.0,97,0.00,,,0.00,Wunderground v.1.15,2013-01-09 12:47:00,
2013-01-09 05:53:00,32.5,31.7,29.91,West,262,0.0,0.0,97,0.00,,,0.00,Wunderground v.1.15,2013-01-09 12:53:00,
2013-01-09 05:58:00,32.6,31.8,29.91,West,262,0.0,0.0,97,0.00,,,0.00,Wunderground v.1.15,2013-01-09 12:58:00,
2013-01-09 06:03:00,32.4,31.6,29.92,West,262,0.0,0.0,97,0.00,,,0.00,Wunderground v.1.15,2013-01-09 13:03:00,
2013-01-09 06:09:00,32.1,31.3,29.92,West,262,0.0,0.0,97,0.00,,,0.00,Wunderground v.1.15,2013-01-09 13:09:00,
2013-01-09 06:15:00,32.0,31.2,29.92,West,262,0.0,0.0,97,0.00,,,0.00,Wunderground v.1.15,2013-01-09 13:15:00,
2013-01-09 06:21:00,32.0,31.2,29.91,NW,305,0.0,0.0,97,0.00,,,0.00,Wunderground v.1.15,2013-01-09 13:21:00,
2013-01-09 06:27:00,31.9,31.1,29.91,NW,305,0.0,0.0,97,0.00,,,0.00,Wunderground v.1.15,2013-01-09 13:27:00,
2013-01-09 06:33:00,31.9,31.1,29.91,NW,306,0.0,0.0,97,0.00,,,0.00,Wunderground v.1.15,2013-01-09 13:33:00,
2013-01-09 06:39:00,32.0,31.2,29.92,WNW,300,0.0,0.0,97,0.00,,,0.00,Wunderground v.1.15,2013-01-09 13:39:00,
2013-01-09 06:45:00,31.8,31.0,29.92,WNW,300,0.0,0.0,97,0.00,,,0.00,Wunderground v.1.15,2013-01-09 13:45:00,
2013-01-09 06:51:00,31.7,30.9,29.92,WNW,300,0.0,0.0,97,0.00,,,0.00,Wunderground v.1.15,2013-01-09 13:51:00,
2013-01-09 06:56:00,31.8,31.0,29.92,WNW,300,0.0,0.0,97,0.00,,,0.00,Wunderground v.1.15,2013-01-09 13:56:00,
2013-01-09 07:02:00,32.0,31.2,29.92,WNW,300,0.0,0.0,97,0.00,,,0.00,Wunderground v.1.15,2013-01-09 14:02:00,
2013-01-09 07:08:00,32.0,31.2,29.91,WNW,300,0.0,0.0,97,0.00,,,0.00,Wunderground v.1.15,2013-01-09 14:08:00,
2013-01-09 07:13:00,32.1,31.3,29.91,WNW,300,0.0,0.0,97,0.00,,,0.00,Wunderground v.1.15,2013-01-09 14:13:00,
2013-01-09 07:19:00,32.1,31.3,29.91,WNW,300,0.0,0.0,97,0.00,,,0.00,Wunderground v.1.15,2013-01-09 14:19:00,
2013-01-09 07:25:00,32.3,31.5,29.92,WNW,300,0.0,0.0,97,0.00,,,0.00,Wunderground v.1.15,2013-01-09 14:25:00,
2013-01-09 07:31:00,32.4,31.6,29.91,WNW,300,0.0,0.0,97,0.00,,,0.00,Wunderground v.1.15,2013-01-09 14:31:00,
2013-01-09 07:37:00,32.4,31.6,29.90,WNW,300,0.0,0.0,97,0.00,,,0.00,Wunderground v.1.15,2013-01-09 14:37:00,
2013-01-09 07:42:00,32.3,31.5,29.90,WNW,300,0.0,0.0,97,0.00,,,0.00,Wunderground v.1.15,2013-01-09 14:42:00,
2013-01-09 07:48:00,32.3,31.5,29.90,WNW,300,0.0,0.0,97,0.00,,,0.00,Wunderground v.1.15,2013-01-09 14:48:00,
2013-01-09 07:53:00,32.4,31.6,29.90,WNW,300,0.0,0.0,97,0.00,,,0.00,Wunderground v.1.15,2013-01-09 14:53:00,
2013-01-09 07:59:00,32.4,31.6,29.90,WNW,300,0.0,0.0,97,0.00,,,0.00,Wunderground v.1.15,2013-01-09 14:59:00,
2013-01-09 08:05:00,32.5,31.7,29.90,WNW,300,0.0,0.0,97,0.00,,,0.00,Wunderground v.1.15,2013-01-09 15:05:00,
2013-01-09 08:11:00,32.5,31.7,29.90,WNW,300,0.0,0.0,97,0.00,,,0.00,Wunderground v.1.15,2013-01-09 15:11:00,
2013-01-09 08:17:00,32.7,31.9,29.90,WNW,300,0.0,0.0,97,0.00,,,0.00,Wunderground v.1.15,2013-01-09 15:17:00,
2013-01-09 08:23:00,32.9,32.1,29.90,WNW,300,0.0,2.0,97,0.00,,,0.00,Wunderground v.1.15,2013-01-09 15:23:00,
2013-01-09 08:28:00,33.0,32.2,29.90,WNW,300,1.0,2.0,97,0.00,,,0.00,Wunderground v.1.15,2013-01-09 15:28:00,
2013-01-09 08:34:00,33.2,32.4,29.90,WNW,300,0.0,1.0,97,0.00,,,0.00,Wunderground v.1.15,2013-01-09 15:34:00,
2013-01-09 08:40:00,33.3,32.5,29.90,WNW,300,0.0,0.0,97,0.00,,,0.00,Wunderground v.1.15,2013-01-09 15:40:00,
2013-01-09 08:46:00,33.5,32.7,29.90,SW,223,1.0,5.0,97,0.00,,,0.00,Wunderground v.1.15,2013-01-09 15:46:00,
2013-01-09 08:52:00,33.7,32.9,29.90,South,186,1.0,1.0,97,0.00,,,0.00,Wunderground v.1.15,2013-01-09 15:52:00,
2013-01-09 08:57:00,33.8,33.0,29.90,West,267,1.0,2.0,97,0.00,,,0.00,Wunderground v.1.15,2013-01-09 15:57:00,
2013-01-09 09:03:00,34.0,33.2,29.90,SSW,209,1.0,2.0,97,0.00,,,0.00,Wunderground v.1.15,2013-01-09 16:03:00,
2013-01-09 09:09:00,34.3,33.5,29.90,WSW,252,1.0,2.0,97,0.00,,,0.00,Wunderground v.1.15,2013-01-09 16:09:00,
2013-01-09 09:14:00,34.5,33.7,29.90,WSW,252,0.0,1.0,97,0.00,,,0.00,Wunderground v.1.15,2013-01-09 16:14:00,
2013-01-09 09:20:00,34.6,33.8,29.90,South,190,0.0,1.0,97,0.00,,,0.00,Wunderground v.1.15,2013-01-09 16:20:00,
2013-01-09 09:26:00,34.7,33.9,29.90,SSE,149,0.0,4.0,97,0.00,,,0.00,Wunderground v.1.15,2013-01-09 16:26:00,
2013-01-09 09:32:00,34.9,34.1,29.89,South,175,1.0,2.0,97,0.00,,,0.00,Wunderground v.1.15,2013-01-09 16:32:00,
2013-01-09 09:37:00,35.2,34.4,29.89,South,189,2.0,4.0,97,0.00,,,0.00,Wunderground v.1.15,2013-01-09 16:37:00,
2013-01-09 09:43:00,35.4,34.4,29.90,SSW,205,2.0,2.0,96,0.00,,,0.00,Wunderground v.1.15,2013-01-09 16:43:00,
2013-01-09 09:49:00,35.6,34.6,29.89,South,189,1.0,4.0,96,0.00,,,0.00,Wunderground v.1.15,2013-01-09 16:49:00,
2013-01-09 09:55:00,35.9,34.9,29.89,SSW,211,2.0,5.0,96,0.00,,,0.00,Wunderground v.1.15,2013-01-09 16:55:00,
2013-01-09 10:00:00,36.1,35.1,29.89,SSE,168,1.0,2.0,96,0.00,,,0.00,Wunderground v.1.15,2013-01-09 17:00:00,
2013-01-09 10:06:00,36.4,35.1,29.89,South,190,3.0,5.0,95,0.00,,,0.00,Wunderground v.1.15,2013-01-09 17:06:00,
2013-01-09 10:12:00,36.7,35.4,29.88,SSW,208,3.0,3.0,95,0.00,,,0.00,Wunderground v.1.15,2013-01-09 17:12:00,
2013-01-09 10:18:00,36.9,35.6,29.89,SSW,208,1.0,3.0,95,0.00,,,0.00,Wunderground v.1.15,2013-01-09 17:18:00,
2013-01-09 10:24:00,37.0,35.4,29.89,SSW,196,0.0,1.0,94,0.00,,,0.00,Wunderground v.1.15,2013-01-09 17:24:00,
2013-01-09 10:30:00,37.1,35.5,29.88,SSW,193,1.0,1.0,94,0.00,,,0.00,Wunderground v.1.15,2013-01-09 17:30:00,
2013-01-09 10:35:00,37.1,35.5,29.88,South,169,0.0,4.0,94,0.00,,,0.00,Wunderground v.1.15,2013-01-09 17:35:00,
2013-01-09 10:41:00,37.1,35.5,29.88,East,97,1.0,1.0,94,0.00,,,0.00,Wunderground v.1.15,2013-01-09 17:41:00,
2013-01-09 10:46:00,37.1,35.5,29.87,East,97,0.0,1.0,94,0.00,,,0.00,Wunderground v.1.15,2013-01-09 17:46:00,
2013-01-09 10:52:00,37.1,35.5,29.87,East,97,0.0,0.0,94,0.00,,,0.00,Wunderground v.1.15,2013-01-09 17:52:00,
2013-01-09 10:58:00,37.1,35.5,29.87,East,97,0.0,0.0,94,0.00,,,0.00,Wunderground v.1.15,2013-01-09 17:58:00,
2013-01-09 11:04:00,37.1,35.5,29.86,East,97,0.0,0.0,94,0.00,,,0.00,Wunderground v.1.15,2013-01-09 18:04:00,
2013-01-09 11:09:00,37.1,35.5,29.85,SSW,203,0.0,4.0,94,0.00,,,0.00,Wunderground v.1.15,2013-01-09 18:09:00,
2013-01-09 11:15:00,37.2,35.6,29.85,SSE,155,1.0,4.0,94,0.00,,,0.00,Wunderground v.1.15,2013-01-09 18:15:00,
2013-01-09 11:21:00,37.2,35.6,29.84,SE,134,0.0,1.0,94,0.00,,,0.00,Wunderground v.1.15,2013-01-09 18:21:00,
2013-01-09 11:27:00,37.3,35.7,29.84,SSW,201,1.0,5.0,94,0.00,,,0.00,Wunderground v.1.15,2013-01-09 18:27:00,
2013-01-09 11:33:00,37.4,35.8,29.83,South,186,2.0,2.0,94,0.00,,,0.00,Wunderground v.1.15,2013-01-09 18:33:00,
2013-01-09 11:39:00,37.6,35.8,29.83,SW,226,2.0,6.0,93,0.00,,,0.00,Wunderground v.1.15,2013-01-09 18:39:00,
2013-01-09 11:42:00,37.7,35.9,29.83,South,169,1.0,2.0,93,0.00,,,0.00,Wunderground v.1.15,2013-01-09 18:42:00,
2013-01-09 11:43:00,37.7,35.9,29.83,SSW,192,1.0,2.0,93,0.00,,,0.00,Wunderground v.1.15,2013-01-09 18:43:00,
2013-01-09 11:45:00,37.7,35.9,29.83,SSW,192,1.0,2.0,93,0.00,,,0.00,Wunderground v.1.15,2013-01-09 18:45:00,
2013-01-09 11:48:00,37.8,36.0,29.83,South,186,1.0,7.0,93,0.00,,,0.00,Wunderground v.1.15,2013-01-09 18:48:00,
2013-01-09 11:49:00,37.9,36.1,29.83,South,170,1.0,7.0,93,0.00,,,0.00,Wunderground v.1.15,2013-01-09 18:49:00,
2013-01-09 11:50:00,37.9,36.1,29.82,South,188,2.0,3.0,93,0.00,,,0.00,Wunderground v.1.15,2013-01-09 18:50:00,
2013-01-09 11:55:00,38.0,36.2,29.82,South,190,2.0,3.0,93,0.00,,,0.00,Wunderground v.1.15,2013-01-09 18:55:00,
2013-01-09 11:57:00,38.1,36.0,29.82,SW,215,3.0,3.0,92,0.00,,,0.00,Wunderground v.1.15,2013-01-09 18:57:00,
2013-01-09 12:05:00,38.2,36.1,29.81,WSW,241,2.0,2.0,92,0.00,,,0.00,Wunderground v.1.15,2013-01-09 19:05:00,
2013-01-09 12:10:00,38.4,36.3,29.81,SW,227,2.0,3.0,92,0.00,,,0.00,Wunderground v.1.15,2013-01-09 19:10:00,
2013-01-09 12:15:00,38.4,36.3,29.80,South,172,2.0,5.0,92,0.00,,,0.00,Wunderground v.1.15,2013-01-09 19:15:00,
2013-01-09 12:21:00,38.5,36.4,29.80,SSW,204,1.0,3.0,92,0.00,,,0.00,Wunderground v.1.15,2013-01-09 19:21:00,
2013-01-09 12:26:00,38.6,36.5,29.79,SE,146,2.0,6.0,92,0.00,,,0.00,Wunderground v.1.15,2013-01-09 19:26:00,
2013-01-09 12:31:00,38.7,36.3,29.79,SSW,200,2.0,2.0,91,0.00,,,0.00,Wunderground v.1.15,2013-01-09 19:31:00,
2013-01-09 12:37:00,38.7,36.3,29.78,SSW,203,1.0,6.0,91,0.00,,,0.00,Wunderground v.1.15,2013-01-09 19:37:00,
2013-01-09 12:42:00,38.8,36.4,29.78,South,188,1.0,2.0,91,0.00,,,0.00,Wunderground v.1.15,2013-01-09 19:42:00,
2013-01-09 12:47:00,38.8,36.4,29.78,SW,225,1.0,2.0,91,0.00,,,0.00,Wunderground v.1.15,2013-01-09 19:47:00,
2013-01-09 12:53:00,38.8,36.4,29.77,SSW,194,1.0,3.0,91,0.00,,,0.00,Wunderground v.1.15,2013-01-09 19:53:00,
2013-01-09 12:59:00,39.0,36.3,29.76,WSW,254,2.0,2.0,90,0.00,,,0.00,Wunderground v.1.15,2013-01-09 19:59:00,
2013-01-09 13:04:00,39.1,36.1,29.76,South,186,3.0,6.0,89,0.00,,,0.00,Wunderground v.1.15,2013-01-09 20:04:00,
2013-01-09 13:10:00,39.3,36.3,29.76,South,180,3.0,3.0,89,0.00,,,0.00,Wunderground v.1.15,2013-01-09 20:10:00,
2013-01-09 13:15:00,39.3,36.0,29.75,South,181,3.0,5.0,88,0.00,,,0.00,Wunderground v.1.15,2013-01-09 20:15:00,
2013-01-09 13:21:00,39.5,36.2,29.75,South,187,2.0,2.0,88,0.00,,,0.00,Wunderground v.1.15,2013-01-09 20:21:00,
2013-01-09 13:27:00,39.5,36.2,29.75,South,186,1.0,2.0,88,0.00,,,0.00,Wunderground v.1.15,2013-01-09 20:27:00,
2013-01-09 13:33:00,39.5,36.2,29.75,SSW,192,1.0,3.0,88,0.00,,,0.00,Wunderground v.1.15,2013-01-09 20:33:00,
2013-01-09 13:38:00,39.6,36.0,29.75,South,169,2.0,3.0,87,0.00,,,0.00,Wunderground v.1.15,2013-01-09 20:38:00,
2013-01-09 13:44:00,39.5,36.0,29.74,South,180,2.0,2.0,87,0.00,,,0.00,Wunderground v.1.15,2013-01-09 20:44:00,
2013-01-09 13:50:00,39.5,35.7,29.74,SSE,164,3.0,4.0,86,0.00,,,0.00,Wunderground v.1.15,2013-01-09 20:50:00,
2013-01-09 13:56:00,39.6,35.8,29.74,South,180,4.0,5.0,86,0.00,,,0.00,Wunderground v.1.15,2013-01-09 20:56:00,
2013-01-09 14:02:00,39.7,35.9,29.74,South,177,4.0,4.0,86,0.00,,,0.00,Wunderground v.1.15,2013-01-09 21:02:00,
2013-01-09 14:08:00,39.7,35.9,29.74,SSE,158,4.0,7.0,86,0.00,,,0.00,Wunderground v.1.15,2013-01-09 21:08:00,
2013-01-09 14:13:00,39.8,36.0,29.74,South,173,3.0,5.0,86,0.00,,,0.00,Wunderground v.1.15,2013-01-09 21:13:00,
2013-01-09 14:19:00,39.7,36.1,29.74,SE,129,1.0,5.0,87,0.00,,,0.00,Wunderground v.1.15,2013-01-09 21:19:00,
2013-01-09 14:25:00,39.6,36.0,29.74,South,188,0.0,0.0,87,0.00,,,0.00,Wunderground v.1.15,2013-01-09 21:25:00,
2013-01-09 14:31:00,39.2,35.7,29.74,South,189,0.0,0.0,87,0.00,,,0.00,Wunderground v.1.15,2013-01-09 21:31:00,
2013-01-09 14:36:00,39.1,35.8,29.74,South,189,0.0,0.0,88,0.00,,,0.00,Wunderground v.1.15,2013-01-09 21:36:00,
2013-01-09 14:42:00,39.0,35.7,29.74,South,189,0.0,0.0,88,0.00,,,0.00,Wunderground v.1.15,2013-01-09 21:42:00,
2013-01-09 14:47:00,38.8,35.6,29.74,SSW,193,0.0,0.0,88,0.00,,,0.00,Wunderground v.1.15,2013-01-09 21:47:00,
2013-01-09 14:53:00,38.6,35.6,29.73,SE,129,0.0,1.0,89,0.00,,,0.00,Wunderground v.1.15,2013-01-09 21:53:00,
2013-01-09 14:58:00,38.4,35.4,29.73,SSW,211,0.0,1.0,89,0.00,,,0.00,Wunderground v.1.15,2013-01-09 21:58:00,
2013-01-09 15:04:00,38.3,35.6,29.73,East,98,0.0,2.0,90,0.00,,,0.00,Wunderground v.1.15,2013-01-09 22:04:00,
2013-01-09 15:10:00,38.1,35.4,29.73,ESE,102,0.0,1.0,90,0.00,,,0.00,Wunderground v.1.15,2013-01-09 22:10:00,
2013-01-09 15:16:00,38.0,35.6,29.72,East,101,0.0,1.0,91,0.00,,,0.00,Wunderground v.1.15,2013-01-09 22:16:00,
2013-01-09 15:21:00,37.8,35.1,29.72,SE,134,0.0,0.0,90,0.00,,,0.00,Wunderground v.1.15,2013-01-09 22:21:00,
2013-01-09 15:27:00,37.7,35.3,29.72,ESE,103,0.0,1.0,91,0.00,,,0.00,Wunderground v.1.15,2013-01-09 22:27:00,
2013-01-09 15:33:00,37.5,35.1,29.72,NE,55,0.0,0.0,91,0.00,,,0.00,Wunderground v.1.15,2013-01-09 22:33:00,
2013-01-09 15:39:00,37.4,35.0,29.72,NE,55,0.0,1.0,91,0.00,,,0.00,Wunderground v.1.15,2013-01-09 22:39:00,
2013-01-09 15:45:00,37.3,34.9,29.72,ENE,57,0.0,0.0,91,0.00,,,0.00,Wunderground v.1.15,2013-01-09 22:45:00,
2013-01-09 15:51:00,37.3,35.2,29.72,ENE,57,0.0,0.0,92,0.00,,,0.00,Wunderground v.1.15,2013-01-09 22:51:00,
2013-01-09 15:57:00,37.3,34.9,29.72,ENE,71,0.0,1.0,91,0.00,,,0.00,Wunderground v.1.15,2013-01-09 22:57:00,
2013-01-09 16:02:00,37.3,35.2,29.71,SSW,211,0.0,0.0,92,0.00,,,0.00,Wunderground v.1.15,2013-01-09 23:02:00,
2013-01-09 16:08:00,37.3,35.2,29.71,SSW,211,0.0,0.0,92,0.00,,,0.00,Wunderground v.1.15,2013-01-09 23:08:00,
2013-01-09 16:14:00,37.3,35.2,29.71,SSW,211,0.0,1.0,92,0.00,,,0.00,Wunderground v.1.15,2013-01-09 23:14:00,
2013-01-09 16:20:00,37.3,35.2,29.71,South,187,0.0,0.0,92,0.00,,,0.00,Wunderground v.1.15,2013-01-09 23:20:00,
2013-01-09 16:26:00,37.3,35.2,29.70,SSW,198,0.0,1.0,92,0.00,,,0.00,Wunderground v.1.15,2013-01-09 23:26:00,
2013-01-09 16:31:00,37.3,35.2,29.71,SSW,206,1.0,3.0,92,0.00,,,0.00,Wunderground v.1.15,2013-01-09 23:31:00,
2013-01-09 16:37:00,37.2,35.1,29.70,SSW,206,0.0,3.0,92,0.00,,,0.00,Wunderground v.1.15,2013-01-09 23:37:00,
2013-01-09 16:42:00,37.2,35.1,29.70,SSW,206,0.0,0.0,92,0.00,,,0.00,Wunderground v.1.15,2013-01-09 23:42:00,
2013-01-09 16:47:00,37.2,35.1,29.70,SSW,206,0.0,1.0,92,0.00,,,0.00,Wunderground v.1.15,2013-01-09 23:47:00,
2013-01-09 16:53:00,37.1,35.0,29.70,SSW,206,0.0,0.0,92,0.00,,,0.00,Wunderground v.1.15,2013-01-09 23:53:00,
2013-01-09 16:59:00,37.0,34.9,29.69,SSW,206,0.0,0.0,92,0.00,,,0.00,Wunderground v.1.15,2013-01-09 23:59:00,
2013-01-09 17:05:00,36.9,34.8,29.69,SW,221,0.0,2.0,92,0.00,,,0.00,Wunderground v.1.15,2013-01-10 00:05:00,
2013-01-09 17:11:00,36.8,34.7,29.69,SW,227,0.0,0.0,92,0.00,,,0.00,Wunderground v.1.15,2013-01-10 00:11:00,
2013-01-09 17:16:00,36.8,34.7,29.69,SW,227,0.0,1.0,92,0.00,,,0.00,Wunderground v.1.15,2013-01-10 00:16:00,
2013-01-09 17:22:00,36.6,34.5,29.69,SW,227,0.0,0.0,92,0.00,,,0.00,Wunderground v.1.15,2013-01-10 00:22:00,
2013-01-09 17:28:00,36.4,34.3,29.69,WSW,242,0.0,2.0,92,0.00,,,0.00,Wunderground v.1.15,2013-01-10 00:28:00,
2013-01-09 17:33:00,36.2,34.1,29.69,WSW,248,0.0,0.0,92,0.00,,,0.00,Wunderground v.1.15,2013-01-10 00:33:00,
2013-01-09 17:39:00,36.1,34.3,29.69,WSW,248,0.0,1.0,93,0.00,,,0.00,Wunderground v.1.15,2013-01-10 00:39:00,
2013-01-09 17:44:00,36.1,34.3,29.68,WSW,248,0.0,0.0,93,0.00,,,0.00,Wunderground v.1.15,2013-01-10 00:44:00,
2013-01-09 17:50:00,36.0,34.2,29.68,WSW,248,0.0,0.0,93,0.00,,,0.00,Wunderground v.1.15,2013-01-10 00:50:00,
2013-01-09 17:56:00,36.0,34.2,29.68,WSW,248,0.0,0.0,93,0.00,,,0.00,Wunderground v.1.15,2013-01-10 00:56:00,
2013-01-09 18:01:00,35.9,34.1,29.68,WSW,248,0.0,0.0,93,0.00,,,0.00,Wunderground v.1.15,2013-01-10 01:01:00,
2013-01-09 18:07:00,35.9,34.1,29.69,WSW,248,0.0,0.0,93,0.00,,,0.00,Wunderground v.1.15,2013-01-10 01:07:00,
2013-01-09 18:13:00,35.9,34.1,29.68,WSW,248,0.0,0.0,93,0.00,,,0.00,Wunderground v.1.15,2013-01-10 01:13:00,
2013-01-09 18:19:00,35.9,34.3,29.68,WSW,248,0.0,0.0,94,0.00,,,0.00,Wunderground v.1.15,2013-01-10 01:19:00,
2013-01-09 18:24:00,35.9,34.3,29.68,WSW,248,0.0,0.0,94,0.00,,,0.00,Wunderground v.1.15,2013-01-10 01:24:00,
2013-01-09 18:30:00,35.9,34.3,29.68,WSW,248,0.0,0.0,94,0.00,,,0.00,Wunderground v.1.15,2013-01-10 01:30:00,
2013-01-09 18:36:00,36.0,34.4,29.68,WSW,248,0.0,1.0,94,0.00,,,0.00,Wunderground v.1.15,2013-01-10 01:36:00,
2013-01-09 18:42:00,36.0,34.7,29.69,WSW,248,0.0,1.0,95,0.00,,,0.00,Wunderground v.1.15,2013-01-10 01:42:00,
2013-01-09 18:47:00,35.9,34.3,29.69,WSW,248,1.0,1.0,94,0.00,,,0.00,Wunderground v.1.15,2013-01-10 01:47:00,
2013-01-09 18:52:00,35.7,34.1,29.70,WSW,248,1.0,1.0,94,0.00,,,0.00,Wunderground v.1.15,2013-01-10 01:52:00,
2013-01-09 18:58:00,35.5,33.9,29.71,WSW,248,0.0,1.0,94,0.00,,,0.01,Wunderground v.1.15,2013-01-10 01:58:00,
2013-01-09 19:04:00,35.5,34.2,29.70,SSW,195,1.0,4.0,95,0.12,,,0.02,Wunderground v.1.15,2013-01-10 02:04:00,
2013-01-09 19:10:00,35.8,34.5,29.70,SSE,150,3.0,3.0,95,0.13,,,0.04,Wunderground v.1.15,2013-01-10 02:10:00,
2013-01-09 19:16:00,36.0,34.7,29.71,SSW,201,3.0,3.0,95,0.08,,,0.04,Wunderground v.1.15,2013-01-10 02:16:00,
2013-01-09 19:21:00,36.0,34.7,29.71,SSW,201,1.0,1.0,95,0.05,,,0.04,Wunderground v.1.15,2013-01-10 02:21:00,
2013-01-09 19:27:00,35.9,34.6,29.72,NW,317,0.0,2.0,95,0.00,,,0.04,Wunderground v.1.15,2013-01-10 02:27:00,
2013-01-09 19:33:00,35.6,34.3,29.72,NW,317,1.0,2.0,95,0.00,,,0.04,Wunderground v.1.15,2013-01-10 02:33:00,
2013-01-09 19:39:00,35.3,34.0,29.71,NNW,327,1.0,2.0,95,0.00,,,0.05,Wunderground v.1.15,2013-01-10 02:39:00,
2013-01-09 19:45:00,35.3,34.0,29.71,ESE,103,0.0,3.0,95,0.00,,,0.05,Wunderground v.1.15,2013-01-10 02:45:00,
2013-01-09 19:51:00,35.4,34.4,29.72,South,178,1.0,1.0,96,0.00,,,0.05,Wunderground v.1.15,2013-01-10 02:51:00,
2013-01-09 19:56:00,35.5,34.5,29.72,South,186,0.0,1.0,96,0.00,,,0.05,Wunderground v.1.15,2013-01-10 02:56:00,
2013-01-09 20:02:00,35.6,34.6,29.72,SE,141,0.0,0.0,96,0.00,,,0.05,Wunderground v.1.15,2013-01-10 03:02:00,
2013-01-09 20:07:00,35.6,34.6,29.72,SE,141,0.0,0.0,96,0.00,,,0.05,Wunderground v.1.15,2013-01-10 03:07:00,
2013-01-09 20:13:00,35.5,34.5,29.72,SSE,164,0.0,0.0,96,0.00,,,0.05,Wunderground v.1.15,2013-01-10 03:13:00,
2013-01-09 20:19:00,35.5,34.5,29.72,SSE,164,0.0,0.0,96,0.00,,,0.05,Wunderground v.1.15,2013-01-10 03:19:00,
2013-01-09 20:24:00,35.3,34.0,29.73,SSE,164,0.0,0.0,95,0.00,,,0.05,Wunderground v.1.15,2013-01-10 03:24:00,
2013-01-09 20:30:00,35.2,33.9,29.73,SSE,164,0.0,0.0,95,0.00,,,0.05,Wunderground v.1.15,2013-01-10 03:30:00,
2013-01-09 20:36:00,35.2,33.9,29.73,SSE,164,0.0,0.0,95,0.00,,,0.05,Wunderground v.1.15,2013-01-10 03:36:00,
2013-01-09 20:42:00,35.1,33.8,29.73,SSE,165,0.0,0.0,95,0.00,,,0.05,Wunderground v.1.15,2013-01-10 03:42:00,
2013-01-09 20:48:00,35.1,33.8,29.74,SSE,164,0.0,0.0,95,0.00,,,0.05,Wunderground v.1.15,2013-01-10 03:48:00,
2013-01-09 20:53:00,35.1,34.1,29.74,SSE,165,0.0,0.0,96,0.00,,,0.05,Wunderground v.1.15,2013-01-10 03:53:00,
2013-01-09 20:59:00,35.1,34.1,29.73,SSE,165,0.0,0.0,96,0.00,,,0.05,Wunderground v.1.15,2013-01-10 03:59:00,
2013-01-09 21:04:00,35.1,34.1,29.74,SSE,165,0.0,0.0,96,0.00,,,0.05,Wunderground v.1.15,2013-01-10 04:04:00,
2013-01-09 21:10:00,35.0,34.0,29.74,SSE,164,0.0,0.0,96,0.00,,,0.05,Wunderground v.1.15,2013-01-10 04:10:00,
2013-01-09 21:15:00,34.9,33.9,29.74,SSE,164,0.0,1.0,96,0.00,,,0.05,Wunderground v.1.15,2013-01-10 04:15:00,
2013-01-09 21:21:00,34.8,33.8,29.74,SSE,165,0.0,0.0,96,0.00,,,0.05,Wunderground v.1.15,2013-01-10 04:21:00,
2013-01-09 21:27:00,34.8,33.8,29.74,East,80,0.0,0.0,96,0.00,,,0.05,Wunderground v.1.15,2013-01-10 04:27:00,
2013-01-09 21:33:00,34.7,33.7,29.74,East,80,0.0,1.0,96,0.00,,,0.05,Wunderground v.1.15,2013-01-10 04:33:00,
2013-01-09 21:39:00,34.6,33.3,29.74,South,190,0.0,3.0,95,0.00,,,0.05,Wunderground v.1.15,2013-01-10 04:39:00,
2013-01-09 21:45:00,34.5,33.5,29.74,SSW,203,0.0,0.0,96,0.00,,,0.05,Wunderground v.1.15,2013-01-10 04:45:00,
2013-01-09 21:50:00,34.4,33.1,29.74,SSW,203,0.0,0.0,95,0.00,,,0.05,Wunderground v.1.15,2013-01-10 04:50:00,
2013-01-09 21:56:00,34.4,33.1,29.74,SW,234,0.0,1.0,95,0.00,,,0.05,Wunderground v.1.15,2013-01-10 04:56:00,
2013-01-09 22:00:00,34.3,33.0,29.74,SSE,164,0.0,1.0,95,0.00,,,0.05,Wunderground v.1.15,2013-01-10 05:00:00,
2013-01-09 22:02:00,34.2,32.9,29.74,SSE,164,1.0,1.0,95,0.00,,,0.05,Wunderground v.1.15,2013-01-10 05:02:00,
2013-01-09 22:03:00,34.3,33.0,29.74,SSE,164,1.0,1.0,95,0.00,,,0.05,Wunderground v.1.15,2013-01-10 05:03:00,
2013-01-09 22:07:00,34.2,32.9,29.74,South,169,0.0,1.0,95,0.00,,,0.05,Wunderground v.1.15,2013-01-10 05:07:00,
2013-01-09 22:13:00,34.2,32.9,29.75,South,169,0.0,0.0,95,0.00,,,0.05,Wunderground v.1.15,2013-01-10 05:13:00,
2013-01-09 22:19:00,34.1,32.8,29.75,South,169,0.0,1.0,95,0.00,,,0.05,Wunderground v.1.15,2013-01-10 05:19:00,
2013-01-09 22:24:00,34.0,32.7,29.75,South,169,0.0,2.0,95,0.00,,,0.05,Wunderground v.1.15,2013-01-10 05:24:00,
2013-01-09 22:30:00,33.9,32.6,29.75,South,169,0.0,0.0,95,0.00,,,0.05,Wunderground v.1.15,2013-01-10 05:30:00,
2013-01-09 22:35:00,33.8,32.5,29.75,South,169,0.0,0.0,95,0.00,,,0.05,Wunderground v.1.15,2013-01-10 05:35:00,
2013-01-09 22:41:00,33.8,32.5,29.76,South,169,0.0,0.0,95,0.00,,,0.05,Wunderground v.1.15,2013-01-10 05:41:00,
2013-01-09 22:47:00,33.7,32.4,29.76,South,169,0.0,0.0,95,0.00,,,0.05,Wunderground v.1.15,2013-01-10 05:47:00,
2013-01-09 22:52:00,33.7,32.4,29.76,South,169,0.0,0.0,95,0.00,,,0.05,Wunderground v.1.15,2013-01-10 05:52:00,
2013-01-09 22:58:00,33.6,32.3,29.76,South,169,0.0,0.0,95,0.00,,,0.05,Wunderground v.1.15,2013-01-10 05:58:00,
2013-01-09 23:03:00,33.6,32.3,29.76,South,169,0.0,1.0,95,0.00,,,0.05,Wunderground v.1.15,2013-01-10 06:03:00,
2013-01-09 23:09:00,33.5,32.2,29.76,WSW,250,0.0,1.0,95,0.00,,,0.05,Wunderground v.1.15,2013-01-10 06:09:00,
2013-01-09 23:15:00,33.4,32.1,29.76,WSW,250,0.0,1.0,95,0.00,,,0.05,Wunderground v.1.15,2013-01-10 06:15:00,
2013-01-09 23:21:00,33.4,32.1,29.76,WSW,250,0.0,0.0,95,0.00,,,0.05,Wunderground v.1.15,2013-01-10 06:21:00,
2013-01-09 23:27:00,33.3,32.0,29.76,WSW,250,0.0,0.0,95,0.00,,,0.05,Wunderground v.1.15,2013-01-10 06:27:00,
2013-01-09 23:32:00,33.2,31.9,29.76,WSW,250,0.0,0.0,95,0.00,,,0.05,Wunderground v.1.15,2013-01-10 06:32:00,
2013-01-09 23:38:00,33.2,31.9,29.76,WSW,250,0.0,0.0,95,0.00,,,0.05,Wunderground v.1.15,2013-01-10 06:38:00,
2013-01-09 23:44:00,33.1,31.8,29.76,SSW,194,0.0,2.0,95,0.00,,,0.05,Wunderground v.1.15,2013-01-10 06:44:00,
2013-01-09 23:50:00,33.0,31.7,29.76,SSW,194,0.0,0.0,95,0.00,,,0.05,Wunderground v.1.15,2013-01-10 06:50:00,
2013-01-09 23:56:00,33.0,31.7,29.77,SSW,194,0.0,0.0,95,0.00,,,0.05,Wunderground v.1.15,2013-01-10 06:56:00,